Find Starlink 38026

NORAD ID: 100408 Int'l Des: 2026-192 Owner: SPXS Country: US Constellation: starlink operational

現在のビュー

3D地球を読み込み中...

About Starlink 38026

Starlink 38026 (NORAD 100408) is a starlink constellation satellite launched Aug 21, 2026 by SPXS of US. with a mass of 575.00 kg.

次回通過

Passes for default location (London). Set your location on the main map for personalized predictions.

高度履歴

Loading altitude history...

軌道要素

1 A0408U 26192E 26248.25866233 .00201275 00000-0 10477-2 0 9997
2 A0408 53.1586 20.5948 0001140 51.2995 308.8130 15.79847133 3528
Epoch: Sep 5, 2026 • Age: 8 hours

現在のステータス

高度 334.1 km
遠地点 / 近地点 N/A
速度 7.71 km/s
衛星直下点 43.66°N, 131.15°W
打ち上げ日 Aug 21, 2026
運用期間 14 days
タイプ internet

技術仕様

分類 Payload
質量 575.00 kg
乾燥質量 530.00 kg
総質量 575.00 kg
長さ 0.30 m
直径 4.10 m
スパン 29.00 m
形状 Box + pan
製造者 SPXS
バスタイプ Starlink V2MO
フェーズステータス In Orbit
所有者/国 SPXS/US

Most Searched